RH
12 17 16 13 10 10 11 13 14 17 22 37 39 38 28 26 31 30 30 32 32 32 31 33 33 38 44 51 58 57 69 78 72 77 81 90 90 84 81 80 80 84 85 80
14 15 12 10 10 9 11 12 13 26 22 24 36 36 35 30 28 31 27 30 29 31 30 35 35 36 42 52 59 60 66 83 71 74 75 82 84 80 78 83 83 80 81 80
14 13 9 10 10 10 11 12 14 30 24 27 25 41 44 24 25 28 26 25 26 28 31 34 34 38 41 51 63 63 69 79 75 81 78 88 90 85 84 78 84 73 75 82
12 9 9 10 9 9 12 10 11 24 28 42 25 51 50 36 32 30 28 23 24 26 27 30 35 39 40 51 58 63 72 78 79 80 77 82 73 88 82 64 67 83 83 84
12 11 10 9 8 6 10 10 12 11 30 30 28 41 49 42 41 35 24 22 21 22 25 30 33 34 38 46 55 67 66 79 68 73 82 74 86 77 77 76 84 75 81 82
11 9 9 8 6 5 6 10 11 12 18 50 26 42 38 34 34 28 23 21 21 21 22 24 29 34 36 44 54 65 70 73 75 71 78 87 85 76 76 84 82 80 77 82
11 9 8 7 7 6 6 8 16 22 22 29 31 32 32 22 24 24 23 21 19 21 21 22 30 33 37 42 55 64 72 74 76 76 78 78 90 83 82 85 83 82 79 83
19 16 9 7 7 8 6 7 14 31 27 23 21 40 31 20 20 21 20 21 21 24 21 22 24 30 37 39 52 64 73 74 75 77 77 75 78 87 79 85 86 70 69 69
18 17 10 7 7 5 10 9 8 16 17 27 21 19 25 19 28 29 22 19 24 22 24 22 23 28 36 39 50 57 74 74 77 76 77 77 76 78 84 88 78 82 76 69
12 24 11 9 7 7 6 10 10 10 18 24 18 23 30 27 33 28 25 26 26 28 22 22 23 26 35 37 42 53 72 74 76 75 76 77 78 78 79 93 82 81 78 80
9 12 15 11 10 9 11 8 11 12 12 20 27 20 20 27 28 31 26 23 20 20 20 22 23 24 34 37 40 48 68 73 76 76 75 76 79 80 80 78 84 87 75 82
9 11 16 14 11 7 7 8 10 14 25 23 15 15 14 18 23 23 24 22 20 18 18 18 22 25 30 38 40 46 68 70 73 73 77 79 79 81 84 78 74 71 79 81
10 12 18 17 12 10 9 8 8 8 14 16 27 18 9 13 23 23 25 22 20 19 23 17 20 26 30 36 41 44 55 67 68 71 75 80 82 81 83 82 78 75 75 85
34 11 12 16 16 17 18 10 9 8 10 12 11 12 15 23 25 22 21 16 18 26 21 27 20 24 28 31 40 43 47 55 65 70 74 79 81 81 79 80 78 86 80 80
17 22 13 11 12 12 11 12 9 10 9 12 9 12 13 12 26 25 24 20 17 23 28 29 24 27 29 31 38 42 44 46 56 66 72 75 77 78 80 81 83 75 85 78
37 35 26 23 12 10 11 10 10 9 9 9 10 13 17 15 23 26 24 14 24 23 26 32 32 34 35 35 39 40 43 44 45 59 67 71 74 80 82 82 83 84 78 83
43 37 38 26 20 22 24 11 10 13 10 10 13 12 15 15 20 19 23 22 12 15 25 30 36 38 42 40 35 40 41 41 47 50 61 68 74 79 82 82 83 88 81 87
36 34 33 36 31 35 24 13 10 12 14 14 12 14 17 18 20 25 28 20 25 22 19 26 32 42 49 58 40 38 40 43 50 56 60 66 71 77 82 82 84 86 83 95
22 31 36 36 31 28 22 17 19 17 17 17 19 16 14 13 14 15 16 17 13 13 18 26 30 38 44 52 47 45 44 50 48 59 60 66 70 76 82 83 85 89 93 91
19 21 32 42 35 30 27 19 13 17 32 32 25 20 16 17 24 28 39 30 23 20 18 22 23 24 48 48 52 49 49 53 55 52 61 63 69 75 84 83 90 93 93 90
32 36 32 44 36 32 28 15 12 27 34 46 39 41 41 44 48 40 39 35 34 27 22 19 22 24 37 54 51 59 53 51 57 58 74 74 74 81 84 88 89 95 95 93
62 68 41 39 48 46 41 25 43 59 52 48 45 42 41 38 35 33 48 46 46 49 47 44 39 44 43 58 55 60 63 65 75 78 83 88 88 86 88 88 96 96 95 96
69 61 84 62 48 61 56 53 56 51 56 48 47 40 37 37 39 49 56 53 44 44 46 50 73 89 90 85 63 67 87 79 79 86 90 90 85 87 88 97 98 99 98 98
78 83 77 75 74 82 38 57 58 42 42 50 58 60 57 70 68 74 73 69 70 73 76 84 89 91 92 92 92 91 84 82 86 92 90 94 94 96 97 97 93 93 90 94
96 93 87 80 82 83 67 76 47 42 55 63 61 59 64 69 76 79 84 88 86 88 91 90 92 95 95 90 89 84 84 83 87 90 96 98 98 98 99 98 93 90 97 96
95 96 95 98 91 98 95 84 75 66 62 64 67 68 68 72 78 77 83 88 89 92 94 95 96 95 96 94 94 93 94 94 96 98 98 98 98 98 97 93 93 92 95 95
Wind_Speed
10 8 16 13 15 13 15 15 13 5 11 9 5 12 17 10 6 11 21 20 19 18 14 15 15 16 16 15 15 14 10 13 11 7 7 4 4 3 3 5 6 7 6 6
10 19 13 14 12 18 21 18 19 12 7 10 16 17 17 15 17 14 19 21 21 19 18 16 16 16 18 16 16 15 13 12 12 9 6 4 4 4 3 3 6 7 7 8
18 9 18 18 19 19 23 20 15 10 5 8 7 11 11 13 13 14 15 23 22 22 21 18 20 17 16 18 17 17 15 13 13 11 7 3 2 2 2 3 4 8 8 5
16 18 19 22 22 18 20 20 21 15 15 9 14 8 16 15 18 15 19 22 22 22 21 21 22 18 20 17 18 18 15 14 11 11 10 8 6 5 5 8 8 5 7 7
19 19 21 20 24 19 23 13 18 18 7 13 12 3 9 17 17 21 22 23 23 23 23 23 23 24 20 20 19 18 18 15 15 12 10 9 6 6 4 3 7 8 7 8
17 13 20 19 15 20 15 15 20 15 6 4 16 10 10 10 24 23 19 22 27 24 23 22 24 23 20 19 19 19 20 18 16 15 13 10 9 8 5 3 6 7 6 5
20 23 16 22 17 17 20 14 12 10 10 6 21 16 14 13 10 26 23 19 19 25 23 23 23 22 21 21 21 20 21 19 18 18 15 15 9 9 8 7 6 7 5 3
14 17 22 15 25 15 19 18 13 10 12 9 7 11 11 16 14 17 22 17 10 7 23 24 23 24 24 23 23 23 23 21 20 19 18 15 14 7 7 7 5 7 8 8
15 20 9 23 17 20 9 21 14 6 10 6 7 9 6 19 7 12 15 15 10 13 12 22 22 21 24 24 23 24 24 22 21 21 17 16 14 13 9 8 7 6 6 8
16 7 21 18 22 17 18 6 14 12 16 17 14 10 8 18 15 14 12 10 6 6 13 18 22 22 23 26 23 23 25 26 24 22 18 16 16 14 11 7 9 8 7 8
25 20 18 19 19 22 8 17 10 8 14 9 8 15 6 10 21 20 20 20 20 20 21 23 24 24 22 23 22 22 22 24 22 21 19 18 15 16 13 12 9 8 9 10
25 17 18 24 15 23 24 15 11 10 5 5 10 16 8 7 23 27 24 18 18 27 29 28 21 22 21 24 23 24 21 23 22 21 20 18 16 15 15 15 14 13 10 13
16 20 12 15 17 19 24 20 15 13 6 16 5 12 17 13 15 17 20 13 11 15 10 22 20 20 21 21 23 24 23 23 23 21 20 18 17 16 17 17 13 14 13 12
8 20 29 20 18 5 8 22 19 19 17 9 24 9 15 5 7 14 17 14 7 7 10 10 23 21 21 21 22 23 23 23 22 21 21 19 19 18 18 16 16 11 14 14
4 15 21 27 16 16 25 14 26 25 20 18 14 16 14 14 11 11 10 7 8 8 9 9 18 17 21 20 19 21 21 22 22 21 21 21 18 17 17 16 16 17 12 14
11 11 11 10 20 27 22 19 23 26 24 21 16 17 5 8 7 8 8 20 6 6 9 7 10 17 17 16 16 20 21 21 21 21 22 19 18 17 17 16 15 15 15 13
10 5 5 10 8 4 12 29 22 13 18 20 20 12 7 9 4 9 11 14 18 13 9 11 11 12 12 18 21 21 22 20 21 21 18 19 18 18 18 16 15 14 16 11
18 15 10 6 8 11 5 10 18 15 11 10 12 13 11 11 8 8 5 9 2 6 10 10 13 8 9 10 16 20 19 21 20 20 19 18 18 18 17 16 16 13 12 10
16 11 8 7 9 3 7 9 4 7 13 8 5 9 10 9 6 7 10 9 10 14 6 5 6 6 10 11 15 17 18 19 20 18 20 19 19 18 17 17 15 11 10 10
15 12 10 3 8 20 4 5 11 6 7 3 3 7 9 5 3 5 3 4 6 10 8 12 8 5 8 9 14 17 18 16 18 19 19 18 17 18 17 16 14 10 12 11
4 5 13 3 4 3 3 10 12 7 8 5 9 8 10 6 5 5 2 5 2 7 10 10 10 9 11 9 13 16 17 19 17 13 11 14 15 16 16 15 12 12 12 12
4 6 8 6 4 5 3 3 3 4 6 6 7 6 8 6 6 6 9 9 9 9 9 6 5 6 6 11 15 15 16 13 11 12 12 13 15 13 12 15 11 10 10 9
2 0 6 6 3 3 7 7 0 1 7 5 4 1 5 4 2 7 8 9 7 7 5 5 5 8 6 5 10 14 11 14 15 16 15 14 13 13 13 12 11 9 9 8
9 14 6 9 13 19 5 6 6 7 7 7 9 12 14 14 14 10 10 8 8 7 8 6 7 8 7 6 9 13 12 15 17 17 15 13 14 12 10 8 8 9 8 7
4 6 10 7 12 20 18 23 10 5 14 15 13 13 13 16 13 11 10 11 8 8 8 6 7 6 7 11 12 13 17 19 18 16 13 13 11 11 10 8 5 7 4 2
4 3 4 3 11 5 9 16 30 12 16 14 11 15 15 14 11 12 11 8 10 8 7 8 7 8 7 11 13 14 14 15 16 15 11 9 10 8 9 9 8 18 10 9
Wind_Direction
220 211 227 221 215 235 253 250 260 182 128 94 12 165 196 205 185 195 174 175 180 189 192 181 175 167 167 170 169 174 165 162 169 170 169 169 187 214 212 183 193 182 192 177
217 225 226 240 227 228 250 258 262 26 163 116 150 197 238 169 219 183 188 179 181 181 188 178 183 174 173 174 173 176 175 155 170 172 171 167 176 215 207 139 171 172 177 185
217 223 214 227 236 219 237 244 257 154 289 303 211 212 234 235 193 193 220 180 184 183 185 182 184 180 174 176 173 175 174 164 168 159 168 185 161 253 181 191 171 206 193 173
225 222 220 217 235 224 232 235 250 172 189 189 194 215 217 219 209 209 218 185 187 188 185 183 183 182 179 178 174 173 171 166 164 162 171 182 188 193 206 201 199 191 182 184
225 207 224 220 222 226 237 241 247 251 157 177 249 343 222 213 218 221 201 188 190 188 187 185 185 186 183 174 176 171 173 168 174 179 172 190 186 194 209 184 172 175 182 179
231 227 224 233 226 222 241 237 255 260 210 204 193 170 270 179 189 217 197 189 189 192 188 186 189 183 185 176 173 171 174 178 174 182 190 191 186 198 201 178 151 156 169 166
236 236 228 222 227 217 216 231 240 252 245 209 202 201 213 221 191 188 195 198 190 188 188 190 185 188 185 180 175 174 176 181 180 184 190 199 194 199 191 171 166 159 165 159
222 237 229 220 218 218 212 216 225 222 230 249 204 202 220 218 191 173 184 181 182 190 188 189 189 189 186 184 179 176 179 181 184 186 193 195 199 202 204 183 167 180 177 176
206 236 229 228 237 212 230 214 224 253 255 256 225 265 221 210 161 151 156 174 198 219 186 190 190 186 185 185 181 180 179 183 185 189 192 196 195 201 207 185 184 179 178 175
242 245 225 243 224 239 212 201 216 228 234 248 254 246 241 188 172 177 179 168 191 223 199 184 198 187 185 186 182 180 178 183 185 189 191 195 196 197 198 181 195 184 186 158
220 242 259 226 212 214 217 221 228 195 219 227 242 253 249 187 179 170 181 192 179 207 229 219 198 188 181 182 180 180 179 182 186 189 191 194 195 195 195 203 194 182 185 163
205 221 239 250 263 205 215 206 196 217 289 248 236 253 289 168 187 186 187 192 195 199 212 206 187 187 175 179 178 181 177 182 187 188 189 195 192 191 193 204 202 200 190 177
199 212 222 251 260 253 213 211 206 220 181 234 218 245 252 250 139 182 198 216 226 213 188 202 187 179 179 176 179 180 179 184 186 186 189 189 191 193 197 201 197 195 195 180
287 205 213 221 235 241 224 207 201 198 223 225 238 253 281 198 196 176 175 180 242 244 194 161 185 179 178 179 179 182 186 183 183 184 188 190 191 194 199 197 199 188 192 187
237 247 210 214 211 221 240 236 205 210 208 210 232 228 231 240 202 221 177 184 223 235 190 152 168 168 176 180 181 184 186 186 182 185 189 191 191 194 196 197 194 200 193 194
334 284 178 194 206 221 242 240 240 214 214 229 233 249 183 253 221 188 212 190 161 217 152 189 153 166 172 175 185 182 185 188 186 187 193 188 189 188 193 194 195 194 200 197
281 340 282 205 156 237 263 236 245 251 218 206 219 221 233 260 234 227 228 220 187 214 208 186 188 176 168 180 187 184 186 183 186 193 189 190 189 189 191 189 191 190 194 185
263 283 273 151 125 210 230 202 224 239 261 224 206 197 202 204 219 167 200 171 277 261 215 204 183 183 182 173 184 187 178 183 187 191 191 189 190 189 185 187 188 182 183 167
239 259 275 159 196 303 285 271 225 205 255 243 241 214 189 202 187 238 174 177 183 244 206 173 198 189 179 167 173 176 178 182 185 186 189 188 187 184 183 185 178 164 155 153
243 246 246 167 184 219 105 255 270 323 276 354 186 215 213 160 134 272 34 106 214 191 187 174 236 178 180 195 166 167 179 178 187 192 189 181 180 178 176 171 162 143 150 152
256 265 245 160 202 269 194 221 276 249 249 48 79 75 70 86 165 196 7 345 307 199 204 194 197 187 188 187 165 171 178 184 189 185 159 163 167 163 159 149 144 146 156 159
64 10 266 204 160 236 57 338 62 214 86 50 54 73 85 80 48 18 51 50 63 63 33 31 152 175 197 167 166 174 180 176 137 133 138 139 140 142 140 133 136 158 155 151
119 266 298 329 161 309 23 119 69 72 84 65 352 101 107 106 107 81 77 55 48 55 48 42 94 78 36 132 164 163 159 134 129 124 130 131 126 129 131 127 130 126 119 120
18 32 307 328 5 343 219 140 294 58 62 40 40 50 78 76 65 52 53 37 64 45 35 69 83 98 97 82 103 119 120 119 118 119 122 116 113 113 111 115 115 114 119 128
67 337 315 278 5 343 8 350 284 171 91 70 47 56 66 78 63 69 55 43 51 50 25 44 83 72 83 102 105 113 121 119 116 113 112 113 110 111 101 74 79 116 67 117
88 60 338 331 325 296 324 336 359 45 85 88 72 64 55 59 69 65 59 51 62 55 49 46 42 77 90 100 105 101 95 114 119 119 124 129 130 122 117 112 86 41 54 65